Flag for Mexico Weather past 2 weeks in Veracruz, Veracruz, Mexico

Now
61 °F

Sandstorm.


Feels Like: 61 °F
Forecast: 64 / 69 °F
Wind: 40 mph from North

Location: Gen. Heriberto Jara

Current Time: Mar 5, 2015 at 8:31:30 PM

Latest Report: Mar 5, 2015 at 7:44 PM


Visibility: 5 mi

Pressure: 30.17 "Hg

Humidity: 72%

Dew point: 52 °F

Location of VeracruzLocation

Historic Weather in Veracruz — Graph

°F

Veracruz temperature yesterday

Maximum temperature yesterday: 86 °F (at 1:45 PM)
Minimum temperature yesterday: 64 °F (at 7:01 AM)
Average temperature yesterday: 74 °F

Past Weeks' High & Low Weather Summary

 TemperatureHumidityPressure
High86 °F (Mar 4, 1:45 PM)94% (Feb 20, 5:42 AM)30.32 "Hg (Feb 20, 5:42 AM)
Low61 °F (Feb 19, 6:49 AM)47% (Feb 20, 12:45 PM)29.63 "Hg (Mar 4, 5:48 PM)
Average70 °F77%30.00 "Hg
* Reported Feb 18 6:46 PM — Mar 5 6:49 PM, Veracruz, Weather by CustomWeather, © 2015

Note: Actual official high and low records may vary slightly from our data, if they occured in-between our weather recording intervals... More about our weather records

Advertising

Veracruz weather history for previous 24 hours

 ConditionsComfort  
Time TempWeatherWind HumidityBarometerVisibility
6:49 PM
Thu, Mar 5
61 °FSandstorm.35 mph72%30.12 "Hg3 mi
4:47 PM66 °FSandstorm.35 mph64%30.03 "Hg3 mi
3:45 PM66 °FSandstorm.35 mph68%30.01 "Hg3 mi
2:44 PM70 °FSandstorm.35 mph60%29.96 "Hg3 mi
1:44 PM72 °FSandstorm.35 mph65%29.99 "Hg1 mi
12:40 PM75 °FSandstorm.35 mph65%29.99 "Hg1 mi
11:47 AM81 °FSandstorm.23 mph66%29.93 "Hg2 mi
10:48 AM79 °FScattered clouds.21 mph70%29.98 "Hg4 mi
8:43 AM73 °FPassing clouds.14 mph83%29.85 "Hg4 mi
7:49 AM70 °FScattered clouds.15 mph88%29.90 "Hg3 mi
6:46 AM68 °FSunny.7 mph88%29.86 "Hg2 mi
5:45 AM68 °FClear.3 mph88%29.76 "Hg5 mi
12:45 AM70 °FFog.3 mph94%29.80 "Hg3 mi
11:52 PM
Wed, Mar 4
72 °FFog.3 mph88%29.74 "Hg3 mi
10:48 PM70 °FFog.3 mph94%29.81 "Hg3 mi
9:47 PM70 °FFog.3 mph88%29.81 "Hg3 mi
8:45 PM70 °FFog.5 mph88%29.68 "Hg3 mi
Weather by CustomWeather, © 2015

See weather overviewHow to use our weather pages